CAPE
449 321 372 261 211 483 453 532 422 470 937 1252 1099 858 783 793 2358 2636 2410 1802 1940 1780 874 195 72 0 0 0 0 0 0 0 11 5 1 1 10 40 35 32 9 13 2
454 577 669 788 798 709 697 651 660 785 780 832 1045 1234 1399 930 569 1738 2559 1605 1672 1350 1196 383 114 0 0 0 0 0 0 0 8 8 4 12 9 20 8 10 8 15 12
421 622 948 1190 1353 1559 1713 1754 1804 1863 1969 1816 1491 1825 1984 1552 720 1111 2297 2041 1956 1447 1253 507 198 0 0 0 0 0 0 0 8 5 10 9 21 17 18 13 7 8 5
1045 876 962 1058 1267 1666 2021 2276 2473 2614 2684 2648 2600 2554 2495 2016 1302 1544 1924 2239 2371 1648 1248 345 58 0 0 0 0 0 0 0 0 10 5 13 14 6 9 9 17 15 0
1068 1116 986 1387 1975 2547 2786 2776 2851 3004 3047 3117 3053 3021 2951 2552 1777 1662 1749 2024 2059 1594 638 96 0 0 0 0 0 0 0 0 0 3 0 3 10 13 10 5 10 0 0
410 309 1291 1350 1422 1456 1279 1605 1707 2093 2400 2742 2839 3140 3081 2761 1931 1029 859 1482 1591 1744 249 17 0 0 0 0 0 0 0 0 0 0 3 3 9 8 2 4 3 0 0
749 682 309 356 1109 1626 597 202 400 1647 705 1351 2739 2905 3054 2785 1737 1334 668 796 1154 1682 552 5 0 0 0 0 0 0 0 0 0 1 3 4 9 9 3 4 1 0 0
98 160 340 246 579 1178 1791 1845 1136 799 1540 2504 2463 3077 2990 959 312 362 316 466 584 939 784 4 0 0 0 0 0 0 0 0 0 0 7 10 10 17 6 1 7 0 0
29 66 85 320 484 791 1119 1411 2038 1379 1689 2691 2104 1150 959 1247 10 31 189 100 54 73 191 12 0 0 0 0 0 0 0 0 0 0 0 0 0 0 0 0 1 0 14
2 22 146 447 710 879 1353 1346 1277 1843 1792 1265 1371 796 16 45 0 0 13 15 0 29 2 9 0 0 0 0 0 0 0 0 0 0 0 0 0 0 0 2 0 1 13
14 65 211 395 575 771 1282 1393 1560 2139 1178 1011 1014 777 340 492 31 0 0 0 0 0 0 0 0 0 0 0 0 0 0 0 0 1 0 1 2 1 0 3 2 1 3
0 45 173 263 333 479 651 870 1251 2020 965 892 817 446 170 406 1 0 0 0 0 0 6 0 0 0 0 0 0 0 0 0 0 0 0 0 0 0 3 4 9 6 0
0 0 55 117 217 226 287 356 686 1729 1875 1668 1550 1238 513 101 87 0 0 0 10 12 14 18 0 0 0 0 0 0 0 0 0 0 0 0 1 2 3 5 3 12 4
0 0 1 63 37 114 36 14 164 234 684 1268 1184 1020 1133 1041 1010 87 9 1 4 4 3 0 0 0 0 0 0 0 0 0 0 0 0 0 0 0 1 2 3 0 1
0 0 0 2 30 35 10 0 0 3 0 20 256 307 626 660 371 10 12 3 4 3 1 0 0 0 0 0 0 0 0 0 0 0 0 0 0 0 0 2 3 3 0
0 0 0 0 0 3 5 4 0 0 0 1 0 0 18 0 0 0 0 4 4 0 2 4 0 0 0 0 0 0 0 0 1 0 0 0 0 0 0 0 1 2 3
0 0 0 0 0 4 4 3 0 0 0 0 0 0 0 0 0 0 0 0 0 0 3 3 0 0 0 0 0 0 0 0 0 0 0 0 0 0 0 0 0 2 3
0 0 0 0 0 1 5 3 3 2 2 2 0 0 0 0 0 0 0 0 0 0 6 3 1 0 0 0 0 0 0 0 0 0 0 0 0 0 0 0 0 0 3
0 0 0 0 1 0 4 5 4 2 1 2 2 1 0 0 0 0 0 2 2 4 4 2 1 0 0 0 0 0 0 0 0 0 0 0 0 0 0 2 0 0 0
0 0 0 0 0 1 4 3 5 3 1 1 2 3 5 2 3 4 3 5 5 5 5 4 4 3 0 0 0 0 0 0 0 0 0 0 0 0 0 0 0 0 0
0 0 0 0 1 1 2 2 4 5 3 0 3 3 2 1 5 5 5 5 3 1 1 1 5 4 3 3 3 0 0 1 0 0 0 2 0 0 0 0 0 0 0
0 0 0 0 1 2 2 4 6 6 7 4 4 4 0 5 4 7 7 7 6 5 4 3 1 2 5 3 4 2 2 2 1 0 0 0 0 0 0 0 0 2 2
0 1 2 3 3 2 3 4 5 6 7 7 5 4 4 4 5 6 7 6 6 5 5 5 3 1 0 1 4 3 3 0 0 0 0 0 0 0 0 0 0 0 0
0 0 2 3 3 4 5 5 4 4 5 6 5 5 4 5 5 5 5 6 6 5 5 8 6 4 1 0 0 1 1 1 0 0 0 0 0 0 0 0 0 0 0
0 0 3 4 4 4 3 3 2 2 3 4 6 6 6 5 4 4 4 5 4 5 4 5 3 6 5 3 0 0 0 0 0 2 0 0 0 0 0 0 0 0 2
0 1 3 3 1 1 2 2 1 2 3 5 4 4 4 4 3 0 0 0 0 0 0 1 3 3 4 4 4 2 1 0 0 0 0 0 0 0 0 0 0 9 26
CIN
-71 -51 -61 -79 -94 -93 -93 -98 -108 -94 -70 -63 -67 -74 -69 -44 -1 -1 -1 -4 -3 -1 -30 -94 -123 0 0 0 0 0 0 0 -2 0 0 0 -2 0 0 0 0 -4 -14
-66 -66 -54 -64 -71 -67 -76 -74 -80 -76 -75 -81 -68 -66 -60 -68 -74 -6 -1 -2 -1 -9 -7 -58 -68 0 0 0 0 0 0 0 -5 0 -7 -1 -1 0 0 0 -1 -1 -1
-99 -73 -67 -66 -65 -68 -65 -55 -53 -51 -45 -50 -53 -51 -49 -55 -77 -53 -1 -1 -1 -17 0 -28 -37 0 0 0 0 0 0 0 -2 -4 -1 -1 -1 0 -1 -1 -1 -1 -1
-78 -76 -71 -60 -53 -46 -41 -36 -26 -18 -8 -6 -5 -19 -20 -40 -53 -51 -17 -1 -1 -17 -6 -52 -87 0 0 0 0 0 0 0 0 -2 -2 -1 -1 -3 -1 -1 -1 -1 0
-72 -81 -101 -40 -5 -2 -2 -3 0 -1 -1 -1 -1 -1 -1 -1 -21 -28 -20 -2 -1 -11 -60 -124 0 0 0 0 0 0 0 0 0 -2 -2 -3 -1 -1 -2 -1 -1 0 0
-142 -210 -89 -49 -7 -6 -67 -63 -37 -13 -30 -25 -36 -12 -1 -1 -11 -67 -58 -5 -1 -4 -88 -173 0 0 0 0 0 0 0 0 0 0 -1 -3 0 -1 -1 -4 -4 0 0
-92 -105 -206 -198 -20 -2 -100 -161 -132 -39 -135 -83 -16 -20 -8 0 -42 -98 -150 -97 -14 0 -31 -136 0 0 0 0 0 0 0 0 0 -1 -1 -3 0 0 -1 -1 -1 0 0
-241 -237 -101 -161 -38 -3 -1 0 -50 -91 -61 -30 -15 -1 -6 -126 -229 -222 -229 -146 -121 -1 -1 -47 0 0 0 0 0 0 0 0 -1 0 -1 0 -1 0 -1 -1 0 0 -1
-277 -246 -137 -47 -54 -3 -1 -16 -1 -23 -29 -5 -15 -89 -66 -61 -264 -336 -224 -276 -232 -11 -13 -77 0 0 0 0 0 0 0 0 0 0 0 0 0 0 -1 -1 -1 0 0
0 -198 -186 -61 -20 -32 -7 -14 -24 -3 -14 -44 -32 -74 -248 -300 0 0 -243 -256 0 -216 -12 -7 0 0 0 0 0 0 0 0 0 0 0 0 0 0 0 -3 -1 -3 -1
-324 -323 -160 -122 -69 -49 -17 -11 -8 -1 -40 -57 -42 -36 -64 -120 -207 0 0 0 0 0 0 0 -1 0 0 0 0 0 0 0 0 -2 -1 -1 -1 -1 -1 -1 0 -1 -2
0 -280 -176 -161 -132 -131 -120 -73 -40 -1 -60 -49 -30 -35 -80 -148 0 0 0 0 0 0 -179 0 -1 0 0 0 0 0 0 0 -1 0 0 -1 -1 -1 -1 -2 0 0 0
0 -13 -247 -180 -146 -171 -201 -170 -91 -5 -1 -1 -2 -2 -18 -182 -169 0 0 0 -286 -349 -295 -219 0 0 0 0 0 0 0 0 0 0 0 -1 -1 -1 -1 0 0 0 0
0 -1 0 -184 -245 -155 -316 -337 -271 -250 -99 -23 -6 -23 -4 -38 -95 -276 -419 0 0 -413 -459 0 0 0 0 0 0 0 0 0 0 0 0 0 0 0 -2 -1 -2 0 -2
0 0 0 -169 -274 -303 -189 0 0 0 0 -263 -273 -193 -94 -136 -259 -287 -202 -221 0 0 0 0 0 0 0 0 0 0 0 0 0 0 0 0 0 -2 0 -1 -1 -1 -1
0 0 0 0 0 -43 -113 -115 0 0 0 0 0 0 -107 0 0 0 0 0 0 0 0 0 0 0 0 0 0 0 0 0 -2 0 0 0 0 0 0 0 -1 -2 -1
0 0 0 0 0 0 0 0 0 0 0 0 0 0 0 0 0 0 0 0 0 0 0 0 0 0 0 0 0 0 0 0 0 0 0 0 0 0 0 0 0 -2 -2
0 0 0 0 0 -1 -1 0 0 0 0 0 0 0 0 0 0 0 0 0 0 0 0 0 0 0 0 0 0 0 0 0 0 0 0 0 0 0 -1 0 0 0 -2
0 0 0 0 -2 0 -1 0 0 0 0 0 0 0 0 0 0 0 0 0 0 0 0 0 0 0 0 0 0 0 0 0 0 0 0 0 0 0 -1 -3 -1 0 0
0 0 0 0 0 -2 -1 0 0 0 0 0 0 0 0 0 0 0 0 0 0 0 0 0 0 0 0 0 0 0 0 0 0 0 0 0 0 0 0 -1 0 0 0
0 0 0 0 -2 -1 0 0 0 0 0 0 0 0 0 0 0 0 0 0 0 0 0 0 0 0 0 0 0 0 0 0 0 0 0 -1 0 0 0 0 0 -1 -3
0 0 0 0 -1 -1 -1 0 0 0 0 0 0 0 0 0 0 0 0 0 0 0 0 0 0 -1 0 0 0 0 0 0 0 0 0 0 0 0 0 0 0 -3 -2
0 -3 -1 -1 -1 0 0 0 0 0 0 0 0 0 0 0 0 0 0 0 0 0 0 0 0 0 0 0 0 0 0 0 0 0 0 0 0 0 0 0 0 0 0
0 -1 -1 0 0 0 0 0 0 0 0 0 0 0 0 0 0 0 0 0 0 0 0 0 0 0 0 0 0 -1 -2 0 0 0 0 0 0 0 0 0 0 0 0
0 -1 0 0 0 0 0 0 0 0 0 0 0 0 0 0 0 0 0 0 0 0 0 0 0 0 0 0 0 0 0 0 0 0 0 0 0 0 0 0 0 0 -7
0 -1 0 0 0 0 0 0 0 0 0 0 0 0 0 0 0 0 0 0 0 0 0 0 0 0 0 0 0 0 0 0 0 0 0 0 0 0 0 0 -16 -39 -19
Wind_Speed
11 11 11 9 7 7 6 5 2 4 1 0 2 0 2 1 2 1 2 6 9 11 12 14 14 15 16 15 16 18 18 16 17 20 18 17 15 14 15 13 14 14 20
10 13 14 13 13 12 12 12 10 6 8 3 2 4 2 2 1 2 0 3 7 11 10 12 14 13 16 17 15 18 20 18 20 20 18 17 15 17 15 14 13 13 12
15 13 16 19 17 18 19 21 22 20 18 13 11 4 3 2 2 1 1 2 4 9 10 10 13 13 14 16 18 16 18 20 18 20 19 17 18 17 15 15 13 14 11
15 14 18 22 26 26 26 27 28 26 26 25 18 7 5 4 2 5 1 2 4 8 11 10 12 12 13 15 17 17 17 19 20 20 20 20 19 18 15 13 14 13 10
12 12 17 23 27 29 28 28 31 31 26 24 23 15 5 4 3 4 2 4 7 9 11 9 11 13 14 16 14 15 15 16 18 20 20 19 20 19 16 13 14 15 10
14 14 19 22 26 28 30 26 31 32 27 23 19 14 9 4 7 5 3 9 10 11 12 9 13 13 14 17 19 16 16 16 17 18 21 19 20 19 18 16 13 12 11
19 21 22 26 31 31 30 33 35 31 32 27 24 22 13 17 24 21 17 18 27 16 11 8 10 13 14 16 20 19 19 18 20 19 20 21 21 20 20 20 21 18 15
19 20 23 24 30 33 34 33 29 32 33 31 27 16 16 14 18 17 16 16 22 22 13 7 9 11 12 14 17 18 19 21 20 20 21 21 21 19 20 21 22 19 16
21 19 21 24 26 29 31 30 33 28 27 24 18 18 16 11 11 12 13 14 21 25 23 9 7 10 12 13 15 17 19 20 22 24 23 22 22 21 17 18 20 20 17
21 21 19 21 25 27 28 30 30 32 25 19 18 17 18 18 11 9 12 15 21 27 19 24 19 11 13 14 14 16 18 19 21 22 23 22 21 21 18 18 18 21 16
21 22 21 21 25 25 26 27 29 28 25 18 16 14 21 16 17 20 15 13 20 17 29 12 18 17 15 15 14 14 17 18 20 20 21 21 20 19 18 17 16 18 22
22 23 23 23 25 26 27 28 28 22 23 20 15 12 19 20 14 15 10 14 6 17 9 7 16 19 18 15 14 14 17 17 17 19 18 19 20 19 19 19 18 18 21
26 26 26 27 26 27 28 28 28 24 23 24 19 15 15 17 18 18 12 12 21 26 27 21 14 18 18 15 13 15 16 14 16 17 18 18 19 19 19 19 20 21 22
28 28 28 28 28 28 28 28 28 27 25 25 22 22 13 8 12 13 16 12 10 10 9 7 12 16 16 13 13 14 13 13 14 15 17 18 19 18 18 18 19 20 21
27 28 29 29 29 30 29 29 29 26 25 25 24 24 21 14 13 13 13 12 6 4 5 6 7 13 13 9 10 11 11 11 13 14 15 16 17 17 17 17 17 19 20
28 28 29 30 29 29 30 30 26 26 25 24 24 24 25 23 24 21 15 6 5 8 5 6 7 9 8 6 5 6 8 8 10 11 12 12 14 15 15 15 16 16 19
29 29 29 28 29 30 29 30 31 28 24 24 23 23 24 26 28 26 18 13 1 2 10 1 1 4 4 3 2 3 4 5 7 8 9 10 12 13 13 13 14 15 16
27 25 29 30 30 29 30 29 28 28 30 25 22 23 22 24 23 22 18 13 9 10 13 7 6 3 2 2 2 1 2 4 6 4 5 9 10 11 12 11 12 12 13
27 27 30 30 29 30 29 29 28 27 26 26 25 22 22 22 20 17 15 17 14 13 15 14 12 10 9 10 12 6 2 2 5 4 3 6 8 10 8 9 9 8 8
28 25 28 28 30 31 30 30 29 27 25 25 26 25 25 23 19 18 18 16 15 13 13 14 14 13 12 9 7 5 4 4 4 4 2 6 6 5 5 6 6 5 6
28 28 28 28 29 29 30 30 30 29 28 25 25 25 26 23 20 18 17 16 15 15 15 15 15 14 13 11 7 3 2 2 3 4 4 2 2 3 5 7 4 4 4
26 27 28 30 30 29 29 30 30 30 29 28 27 26 25 22 21 20 18 18 18 17 17 17 16 16 13 11 8 4 0 3 6 7 6 4 2 1 2 8 4 5 4
29 32 32 31 29 28 27 28 29 29 28 28 27 26 25 23 21 21 21 19 19 18 17 16 15 15 15 14 10 8 4 1 5 6 5 4 3 1 1 4 7 4 7
31 33 30 29 27 28 28 28 27 28 26 26 26 25 23 22 21 21 20 20 19 18 18 18 17 17 16 16 14 14 12 6 2 5 5 5 4 3 2 3 6 5 8
32 33 30 29 27 25 25 26 26 25 25 24 24 23 22 21 20 20 20 19 18 18 18 18 18 18 18 17 16 15 15 15 9 3 4 5 6 5 2 3 5 6 14
32 33 31 28 25 23 23 23 22 21 22 23 21 18 19 19 18 17 17 17 17 18 19 19 19 20 21 20 19 19 20 16 12 7 4 4 6 6 5 7 3 4 7
Wind_Direction
289 295 302 307 311 313 313 317 312 187 195 310 350 358 185 99 32 37 27 30 23 30 35 34 36 39 41 43 40 38 40 44 44 49 62 79 88 102 97 116 140 163 112
293 292 295 300 304 309 313 317 324 326 329 318 286 333 242 223 298 218 340 49 30 30 37 36 38 46 41 42 46 43 44 49 54 58 72 79 98 100 114 135 156 168 192
289 296 294 293 298 300 302 303 304 309 314 319 321 290 289 316 339 354 129 80 39 27 36 39 39 47 46 45 44 53 53 52 64 69 74 87 97 111 127 143 161 165 192
290 297 297 290 285 288 293 295 295 301 304 306 313 296 275 307 307 349 82 49 27 23 24 41 42 52 52 50 47 53 60 62 64 75 81 89 99 109 132 148 158 176 210
309 311 304 297 291 286 289 294 289 292 305 308 309 313 257 273 287 329 347 2 3 7 14 45 48 51 54 52 57 58 71 74 73 73 82 93 97 107 121 142 139 128 169
302 309 305 302 301 294 280 299 289 287 302 311 314 316 312 269 316 316 301 342 351 358 1 49 42 54 58 55 54 66 73 81 85 85 79 94 100 103 111 124 134 145 150
310 307 302 295 294 292 292 295 279 292 291 302 308 307 317 314 304 307 312 316 308 337 358 41 65 61 67 60 57 68 70 79 83 88 90 86 100 105 102 113 110 120 123
317 315 309 309 286 285 285 284 298 289 292 300 305 314 317 327 323 320 318 317 325 299 346 41 79 75 89 79 70 72 76 75 80 89 91 92 97 113 109 105 108 113 121
335 341 321 302 291 284 280 291 279 294 304 317 322 319 320 331 335 330 323 315 333 311 309 355 87 94 98 95 81 77 77 81 70 64 84 94 91 98 129 122 107 107 123
341 346 326 304 288 283 284 285 279 272 302 323 326 328 324 325 326 310 297 300 307 287 299 304 196 126 116 116 92 83 76 84 85 77 78 93 101 108 114 111 109 91 118
331 326 336 312 284 282 276 278 287 288 302 325 331 335 327 338 334 328 305 290 292 283 256 295 175 155 130 121 121 99 83 85 83 84 76 83 94 104 118 125 129 107 70
321 318 314 313 307 306 302 306 302 309 304 322 340 349 345 354 3 8 45 3 334 251 267 133 152 154 141 126 123 86 89 87 83 79 84 78 83 90 95 110 119 123 88
306 302 304 305 309 310 306 305 307 315 313 308 327 342 358 25 48 36 54 47 213 211 216 159 138 148 141 129 108 107 103 95 79 82 78 84 85 82 85 95 100 103 107
308 306 307 308 308 308 308 308 305 309 311 311 320 321 347 15 23 49 353 348 297 280 289 88 122 140 142 126 115 124 121 102 92 77 78 84 88 90 87 92 99 107 108
319 312 309 308 311 309 305 304 304 307 307 305 308 307 312 330 335 354 359 317 68 16 49 79 103 135 142 126 127 133 127 103 106 78 66 77 83 84 79 85 93 112 106
319 321 316 312 312 310 311 309 311 305 303 304 304 303 300 302 299 305 326 11 98 119 88 119 133 144 151 141 128 127 131 105 105 89 77 65 67 76 77 77 89 104 114
321 320 318 316 314 310 310 307 301 303 302 301 301 304 305 298 285 286 297 302 127 175 288 230 239 160 157 154 148 137 127 110 97 98 62 65 64 67 87 74 81 98 105
331 332 321 316 314 313 308 307 306 301 294 295 296 299 303 301 295 288 287 290 283 281 287 287 295 292 266 228 219 200 149 120 127 90 64 95 78 76 100 79 70 81 92
333 329 324 322 318 315 310 306 305 301 299 292 291 293 298 298 298 294 285 282 278 277 286 292 300 302 303 303 305 307 281 150 144 125 314 79 91 90 68 76 54 45 58
334 337 332 327 321 314 311 306 300 298 294 294 288 287 289 290 292 289 284 282 279 281 289 297 305 311 312 311 306 296 275 220 160 164 311 118 94 29 2 29 39 18 60
338 335 331 328 323 320 314 306 300 294 290 289 288 287 284 283 284 286 285 284 283 285 291 298 307 315 321 324 328 307 282 249 196 206 250 163 102 81 346 331 14 7 341
347 342 334 323 319 318 315 310 301 293 287 281 280 283 281 278 276 277 280 281 283 286 293 297 305 313 323 330 335 346 305 164 162 166 170 174 149 27 2 305 331 316 322
345 332 328 325 322 319 319 314 303 293 287 281 277 276 275 274 274 274 275 278 280 284 290 295 303 309 314 320 329 335 344 133 160 166 168 191 205 209 171 289 291 309 297
345 339 339 335 328 315 311 310 303 291 289 281 275 270 270 269 271 273 276 277 280 284 287 294 300 304 308 309 313 311 316 341 132 174 188 196 206 211 183 229 269 283 290
352 347 350 346 336 327 315 305 300 292 287 278 272 269 269 269 271 272 276 278 280 285 290 294 297 298 299 301 303 303 303 305 313 296 193 206 192 187 199 171 201 252 278
0 356 0 0 352 342 317 308 304 299 285 271 271 273 268 267 269 272 277 282 285 288 289 291 293 295 296 296 295 294 293 297 300 296 272 228 198 194 187 175 226 195 205